weather.gov     
National Weather Service

Regional Weather Roundup
NWS Homepage
This page is being discontinued on March 12, 2014.
The same data is available at this site. Please update your bookmarks.
Thank you, and we apologize for the inconvenience.
Please send an email to SR-SRH.Webmaster@noaa.gov with any concerns.


Current Version
Previous Version:    01  02  03  04  05  06  07  08  09  10  11  12  13  14  15  16  17  18  19  20  21  22  23  24  25  26  
[Printable]
979
ASUS42 KKEY 200010
RWRKEY

FLORIDA REGIONAL WEATHER ROUNDUP FOR THE FLORIDA KEYS
NATIONAL WEATHER SERVICE KEY WEST FLORIDA
800 PM EDT SAT APR 19 2014

...SOUTH FLORIDA AND THE KEYS...

CITY           SKY/WX    TMP DP  RH WIND       PRES   REMARKS
FORT MYERS     MOCLDY    69  58  67 NW16G23   29.96R
SW REGIONAL AP MOCLDY    69  57  65 NW12      29.97R
NAPLES         MOCLDY    71  60  68 W9G21     29.97R
MIAMI          PTCLDY    77  63  61 W14G20    29.93R
WEST KENDALL   PTCLDY    75  64  68 W15       29.95R
HOMESTEAD      CLEAR     75  65  71 W15       29.94R
MARATHON       PTCLDY    76  67  73 NW13G22   29.96R
BOCA CHICA NAS MOCLDY    75  67  76 NW18G24   29.97S
KEY WEST INTL  MOCLDY    76  68  76 NW18      29.98R

...INTERNATIONAL WEATHER...

CITY           SKY/WX    TMP DP  RH WIND       PRES   REMARKS
NASSAU BAHAMAS PTCLDY    75  75 100 S5        29.95S
CANCUN MEXICO  MOCLDY    81  72  74 N5        30.00R
COZUMEL MEXICO MOCLDY    77  72  83 NE7       29.99R

ADJACENT COASTAL WATERS...

STATION/POSITION TIME  SKY/WX   TEMP    WIND        PRES    WAVE
                                AIR SEA DIR/SP/G            HT/PER
                 (UTC)          (F)     (DEG/KT/KT) (MB)    (FT/S)
PULASKI SHOAL LI NOT AVBL
SAND KEY         NOT AVBL
SOMBRERO KEY     0000            76     300/ 20/ 23 1015.1R
LONG KEY         0000            76 82  300/ 20/ 23 1015.3R
MOLASSES REEF    0000            76 78  300/ 19/ 22 1014.1R
FOWEY ROCKS      0000            77 79  270/ 24/ 25 1013.6R
Buoy 42080       NOT AVBL

$$




U.S. Dept. of Commerce
NOAA National Weather Service
1325 East West Highway
Silver Spring, MD 20910
E-mail: w-nws.webmaster@noaa.gov
Page last modified: May 16, 2007
NATIONAL WEATHER SERVICE: for Safety, for Work, for Fun - FOR LIFE